WA6MEM Weather Reports


Display with metric or nautical units.
time (UTC)temp
F
wind
direction
speed
MPH
gust
MPH
rain 1hr
in
rain 24hr
in
rain mn
in
humidity
%
barometer
mb
20260508225528 64 250 2.0 0.0 0.00 0.00 0.00 82 1012.3
20260508225025 64 178 2.0 0.0 0.00 0.00 0.00 83 1012.3
20260508224524 64 215 3.0 0.0 0.00 0.00 0.00 83 1012.3
20260508224023 64 217 3.0 0.0 0.00 0.00 0.00 84 1012.6
20260508223523 64 194 3.0 0.0 0.00 0.00 0.00 84 1012.6
20260508223029 64 194 3.0 0.0 0.00 0.00 0.00 85 1012.6
20260508222522 63 198 3.0 0.0 0.00 0.00 0.00 86 1012.8
20260508222024 63 175 3.0 0.0 0.00 0.00 0.00 86 1012.8
20260508221521 63 183 3.0 0.0 0.00 0.00 0.00 87 1012.8
20260508221021 63 200 3.0 0.0 0.00 0.00 0.00 86 1013.1
20260508220523 63 188 3.0 0.0 0.00 0.00 0.00 86 1013.1
20260508220100 63 172 3.0 0.0 0.00 0.00 0.00 87 1013.1
20260508215520 63 173 4.0 0.0 0.00 0.00 0.00 87 1013.1
20260508215020 63 165 4.0 0.0 0.00 0.00 0.00 85 1013.1
20260508214520 63 190 3.0 0.0 0.00 0.00 0.00 87 1013.1
20260508214018 62 174 4.0 0.0 0.00 0.00 0.00 86 1013.3
20260508213517 62 172 3.0 0.0 0.00 0.00 0.00 87 1013.3
20260508213017 62 360 3.0 0.0 0.00 0.00 0.00 87 1013.3
20260508212518 62 178 4.0 0.0 0.00 0.00 0.00 86 1013.6
20260508212017 62 152 4.0 0.0 0.00 0.00 0.00 88 1013.6
20260508211522 62 199 4.0 0.0 0.00 0.00 0.00 88 1013.6
20260508211016 62 169 4.0 0.0 0.00 0.00 0.00 87 1013.8
20260508210516 62 148 3.0 0.0 0.00 0.00 0.00 88 1013.8
20260508210015 62 148 3.0 0.0 0.00 0.00 0.00 88 1013.8
20260508205514 62 173 3.0 0.0 0.00 0.00 0.00 88 1013.8
20260508205014 62 184 3.0 0.0 0.00 0.00 0.00 89 1013.8
20260508204513 61 225 3.0 0.0 0.00 0.00 0.00 91 1013.8
20260508204017 61 182 4.0 0.0 0.00 0.00 0.00 90 1013.8
20260508203512 61 150 3.0 0.0 0.00 0.00 0.00 90 1013.8
20260508203012 61 181 3.0 0.0 0.00 0.00 0.00 90 1013.8
20260508202513 61 192 4.0 0.0 0.00 0.00 0.00 91 1014.0
20260508202011 61 169 4.0 0.0 0.00 0.00 0.00 91 1014.0
20260508201512 61 186 3.0 0.0 0.00 0.00 0.00 91 1014.0
20260508201011 60 149 3.0 0.0 0.00 0.00 0.00 92 1014.2
20260508200511 60 115 3.0 0.0 0.00 0.00 0.00 91 1014.2
20260508200010 61 155 3.0 0.0 0.00 0.00 0.00 92 1014.2
20260508195510 61 200 3.0 0.0 0.00 0.00 0.00 93 1014.3
20260508195008 60 211 3.0 0.0 0.00 0.00 0.00 94 1014.3
20260508194508 60 166 3.0 0.0 0.00 0.00 0.00 94 1014.3
20260508194008 60 206 3.0 0.0 0.00 0.00 0.00 94 1014.4
20260508193506 60 192 3.0 0.0 0.00 0.00 0.00 95 1014.4
20260508193005 59 165 3.0 0.0 0.00 0.00 0.00 95 1014.4
20260508192504 59 228 3.0 0.0 0.00 0.00 0.00 95 1014.5
20260508192004 59 146 2.0 0.0 0.00 0.00 0.00 96 1014.5
20260508191505 58 183 2.0 0.0 0.00 0.00 0.00 96 1014.8
20260508191002 58 201 2.0 0.0 0.00 0.00 0.00 96 1014.8
20260508190504 58 149 2.0 0.0 0.00 0.00 0.00 96 1014.8
20260508190108 57 204 2.0 0.0 0.00 0.00 0.00 96 1014.8
20260508185559 57 209 2.0 0.0 0.00 0.00 0.00 95 1015.0
20260508185059 57 200 2.0 0.0 0.00 0.00 0.00 96 1015.0
20260508184558 57 219 2.0 0.0 0.00 0.00 0.00 96 1015.0
20260508184057 57 185 2.0 0.0 0.00 0.00 0.00 96 1015.0
20260508183557 57 178 2.0 0.0 0.00 0.00 0.00 96 1015.0
20260508183057 57 195 2.0 0.0 0.00 0.00 0.00 96 1015.0
20260508182556 57 161 2.0 0.0 0.00 0.00 0.00 96 1015.0
20260508182057 57 204 2.0 0.0 0.00 0.00 0.00 96 1015.0
20260508181608 57 207 2.0 0.0 0.00 0.00 0.00 96 1015.0
20260508181056 57 158 2.0 0.0 0.00 0.00 0.00 96 1015.0
20260508180556 56 203 2.0 0.0 0.00 0.00 0.00 96 1015.0
20260508180105 56 155 2.0 0.0 0.00 0.00 0.00 96 1015.0
20260508175555 56 173 2.0 0.0 0.00 0.00 0.00 96 1015.1
20260508175055 56 236 2.0 0.0 0.00 0.00 0.00 96 1015.1
20260508174609 56 84 1.0 0.0 0.00 0.00 0.00 96 1015.1
20260508174056 56 42 1.0 0.0 0.00 0.00 0.00 96 1015.2
20260508173554 56 53 1.0 0.0 0.00 0.00 0.00 96 1015.2
20260508173055 56 45 1.0 0.0 0.00 0.00 0.00 96 1015.2
20260508172554 56 47 1.0 0.0 0.00 0.00 0.00 96 1015.3
20260508172053 56 72 1.0 0.0 0.00 0.00 0.00 96 1015.3
20260508171553 56 50 2.0 0.0 0.00 0.00 0.00 96 1015.3
20260508171056 56 355 2.0 0.0 0.00 0.00 0.00 96 1015.1
20260508170552 56 96 2.0 0.0 0.00 0.00 0.00 96 1015.1
20260508170054 56 82 2.0 0.0 0.00 0.00 0.00 96 1015.1
20260508165550 56 94 2.0 0.0 0.00 0.00 0.00 96 1015.1
20260508165050 56 105 2.0 0.0 0.00 0.00 0.00 96 1015.1
20260508164551 56 150 2.0 0.0 0.00 0.00 0.00 96 1015.1
20260508164051 56 106 2.0 0.0 0.00 0.00 0.00 96 1015.1
20260508163553 55 150 2.0 0.0 0.00 0.00 0.00 96 1015.1
20260508163050 55 67 3.0 0.0 0.00 0.00 0.00 96 1015.1
20260508162550 55 100 2.0 0.0 0.00 0.00 0.00 96 1015.1
20260508162050 55 94 2.0 0.0 0.00 0.00 0.00 96 1015.1
20260508161550 55 63 2.0 0.0 0.00 0.00 0.00 96 1015.1
20260508161049 55 85 3.0 0.0 0.00 0.00 0.00 96 1015.1
20260508160553 55 5 3.0 0.0 0.00 0.00 0.00 96 1015.1
20260508160048 55 71 2.0 0.0 0.00 0.00 0.00 96 1015.1
20260508155549 55 82 2.0 0.0 0.00 0.00 0.00 96 1015.0
20260508155048 55 73 2.0 0.0 0.00 0.00 0.00 96 1015.0
20260508154549 55 76 2.0 0.0 0.00 0.00 0.00 96 1015.0
20260508154048 55 42 1.0 0.0 0.00 0.00 0.00 96 1014.9
20260508153548 55 19 2.0 0.0 0.00 0.00 0.00 96 1014.9
20260508153048 55 59 3.0 0.0 0.00 0.00 0.00 96 1014.9
20260508152551 55 74 3.0 0.0 0.00 0.00 0.00 96 1015.1
20260508152047 55 49 3.0 0.0 0.00 0.00 0.00 96 1015.1
20260508151547 55 75 2.0 0.0 0.00 0.00 0.00 96 1015.1
20260508151047 55 132 1.0 0.0 0.00 0.00 0.00 96 1015.1
20260508150547 55 79 1.0 0.0 0.00 0.00 0.00 96 1015.1
20260508150046 55 36 3.0 0.0 0.00 0.00 0.00 96 1015.1
20260508145546 55 38 3.0 0.0 0.00 0.00 0.00 96 1015.1
20260508145045 55 30 3.0 0.0 0.00 0.00 0.00 96 1015.1
20260508144545 55 68 3.0 0.0 0.00 0.00 0.00 96 1015.1
20260508144045 55 130 2.0 0.0 0.00 0.00 0.00 96 1015.1
20260508143545 55 36 2.0 0.0 0.00 0.00 0.00 95 1015.1
20260508143051 55 38 2.0 0.0 0.00 0.00 0.00 95 1015.1
20260508142544 55 54 2.0 0.0 0.00 0.00 0.00 95 1015.0
20260508142044 55 76 3.0 0.0 0.00 0.00 0.00 95 1015.0
20260508141555 55 16 3.0 0.0 0.00 0.00 0.00 95 1015.0
20260508141043 55 53 2.0 0.0 0.00 0.00 0.00 95 1014.5
20260508140543 55 78 1.0 0.0 0.00 0.00 0.00 95 1014.5
20260508140042 55 101 1.0 0.0 0.00 0.00 0.00 95 1014.5
20260508135542 55 105 2.0 0.0 0.00 0.00 0.00 95 1014.6
20260508135043 55 97 2.0 0.0 0.00 0.00 0.00 95 1014.6
20260508134555 55 136 2.0 0.0 0.00 0.00 0.00 95 1014.6
20260508134042 55 109 3.0 0.0 0.00 0.00 0.00 95 1014.6
20260508133542 55 111 1.0 0.0 0.00 0.00 0.00 95 1014.6
20260508133041 55 62 1.0 0.0 0.00 0.00 0.00 95 1014.6
20260508132541 55 78 2.0 0.0 0.00 0.00 0.00 95 1014.5
20260508132041 55 142 2.0 0.0 0.00 0.00 0.00 95 1014.5
20260508131540 55 116 2.0 0.0 0.00 0.00 0.00 95 1014.5
20260508131040 55 74 2.0 0.0 0.00 0.00 0.00 95 1014.2
20260508130543 55 78 2.0 0.0 0.00 0.00 0.00 95 1014.2
20260508130040 55 78 2.0 0.0 0.00 0.00 0.00 95 1014.2
20260508125539 55 63 2.0 0.0 0.00 0.00 0.00 95 1014.0
20260508125039 55 65 2.0 0.0 0.00 0.00 0.00 95 1014.0
20260508124539 55 71 2.0 0.0 0.00 0.00 0.00 95 1014.0
20260508124039 55 71 2.0 0.0 0.00 0.00 0.00 95 1013.9
20260508123538 55 71 3.0 0.0 0.00 0.00 0.00 95 1013.9
20260508123040 55 61 3.0 0.0 0.00 0.00 0.00 95 1013.9
20260508122537 55 71 3.0 0.0 0.00 0.00 0.00 95 1013.8
20260508122038 55 98 3.0 0.0 0.00 0.00 0.00 95 1013.8
20260508121541 55 61 2.0 0.0 0.00 0.00 0.00 95 1013.8
20260508121038 55 163 2.0 0.0 0.00 0.00 0.00 95 1013.6
20260508120538 55 75 2.0 0.0 0.00 0.00 0.00 95 1013.6
20260508120042 55 90 2.0 0.0 0.00 0.00 0.00 95 1013.6
20260508115540 55 58 2.0 0.0 0.00 0.00 0.00 95 1013.6
20260508115036 55 85 2.0 0.0 0.00 0.00 0.00 95 1013.6
20260508114546 55 27 1.0 0.0 0.00 0.00 0.00 95 1013.6
20260508114038 55 75 1.0 0.0 0.00 0.00 0.00 95 1013.6
20260508113536 55 78 2.0 0.0 0.00 0.00 0.00 95 1013.6
20260508113040 55 63 1.0 0.0 0.00 0.00 0.00 95 1013.6
20260508112536 55 53 2.0 0.0 0.00 0.00 0.00 95 1013.6
20260508112040 55 136 2.0 0.0 0.00 0.00 0.00 95 1013.6
20260508111541 55 70 2.0 0.0 0.00 0.00 0.00 95 1013.6
20260508111037 55 48 2.0 0.0 0.00 0.00 0.00 95 1013.5
20260508110535 55 87 2.0 0.0 0.00 0.00 0.00 95 1013.5
20260508110034 55 63 1.0 0.0 0.00 0.00 0.00 95 1013.5
20260508105534 55 136 0.0 0.0 0.00 0.00 0.00 95 1013.6
20260508105033 55 140 1.0 0.0 0.00 0.00 0.00 95 1013.6
20260508104533 55 85 1.0 0.0 0.00 0.00 0.00 95 1013.6
20260508104033 55 80 1.0 0.0 0.00 0.00 0.00 95 1013.6
20260508103533 54 130 1.0 0.0 0.00 0.00 0.00 95 1013.6
20260508103038 54 77 1.0 0.0 0.00 0.00 0.00 95 1013.6
20260508102533 54 35 1.0 0.0 0.00 0.00 0.00 95 1013.6
20260508102033 54 107 1.0 0.0 0.00 0.00 0.00 95 1013.6
20260508101533 54 122 1.0 0.0 0.00 0.00 0.00 95 1013.6
20260508101032 54 98 1.0 0.0 0.00 0.00 0.00 95 1013.6
20260508100532 54 67 1.0 0.0 0.00 0.00 0.00 95 1013.6
20260508100031 54 95 1.0 0.0 0.00 0.00 0.00 95 1013.6
20260508095531 54 97 1.0 0.0 0.00 0.00 0.00 95 1013.6
20260508095032 54 120 1.0 0.0 0.00 0.00 0.00 95 1013.6
20260508094532 54 153 1.0 0.0 0.00 0.00 0.00 95 1013.6
20260508094030 54 120 1.0 0.0 0.00 0.00 0.00 95 1013.7
20260508093530 54 134 1.0 0.0 0.00 0.00 0.00 95 1013.7
20260508093034 54 166 1.0 0.0 0.00 0.00 0.00 95 1013.7
20260508092531 54 142 1.0 0.0 0.00 0.00 0.00 95 1013.7
20260508092029 54 132 1.0 0.0 0.00 0.00 0.00 95 1013.7
20260508091535 55 165 1.0 0.0 0.00 0.00 0.00 95 1013.7
20260508091032 55 139 1.0 0.0 0.00 0.00 0.00 95 1014.0
20260508090528 55 161 1.0 0.0 0.00 0.00 0.00 95 1014.0
20260508090028 55 161 1.0 0.0 0.00 0.00 0.00 95 1014.0
20260508085527 55 161 1.0 0.0 0.00 0.00 0.00 95 1014.1
20260508085027 55 144 1.0 0.0 0.00 0.00 0.00 95 1014.1
20260508084527 55 144 1.0 0.0 0.00 0.00 0.00 95 1014.1
20260508084027 55 133 1.0 0.0 0.00 0.00 0.00 95 1014.1
20260508083527 55 132 1.0 0.0 0.00 0.00 0.00 95 1014.1
20260508083026 55 39 1.0 0.0 0.00 0.00 0.00 95 1014.1
20260508082526 55 67 1.0 0.0 0.00 0.00 0.00 95 1014.2
20260508082027 55 69 1.0 0.0 0.00 0.00 0.00 95 1014.2
20260508081553 55 59 1.0 0.0 0.00 0.00 0.00 95 1014.2
20260508081025 55 46 1.0 0.0 0.00 0.00 0.00 95 1014.3
20260508080525 55 76 1.0 0.0 0.00 0.00 0.00 95 1014.3
20260508080025 55 64 0.0 0.0 0.00 0.00 0.00 95 1014.3
20260508075523 55 64 0.0 0.0 0.00 0.00 0.00 95 1014.2
20260508075023 54 64 0.0 0.0 0.00 0.00 0.00 95 1014.2
20260508074524 54 64 1.0 0.0 0.00 0.00 0.00 95 1014.2
20260508074023 54 64 1.0 0.0 0.00 0.00 0.00 95 1014.2
20260508073526 54 128 0.0 0.0 0.00 0.00 0.00 95 1014.2
20260508073022 55 155 0.0 0.0 0.00 0.00 0.00 95 1014.2
20260508072521 55 155 0.0 0.0 0.00 0.00 0.00 95 1014.2
20260508072023 55 135 0.0 0.0 0.00 0.00 0.00 95 1014.2
20260508071536 55 135 1.0 0.0 0.00 0.00 0.00 95 1014.2
20260508071021 55 175 1.0 0.0 0.00 0.00 0.00 95 1014.3
20260508070524 55 175 1.0 0.0 0.00 0.00 0.00 95 1014.3
20260508070020 55 157 1.0 0.0 0.00 0.00 0.00 95 1014.3
20260508065522 55 157 1.0 0.0 0.00 0.00 0.00 94 1014.2
20260508065019 55 157 1.0 0.0 0.00 0.00 0.00 94 1014.2
20260508064519 55 124 1.0 0.0 0.00 0.00 0.00 94 1014.2
20260508064019 55 147 1.0 0.0 0.00 0.00 0.00 94 1014.2
20260508063521 55 193 1.0 0.0 0.00 0.00 0.00 95 1014.2
20260508063030 55 210 1.0 0.0 0.00 0.00 0.00 95 1014.2
20260508062519 55 198 1.0 0.0 0.00 0.00 0.00 95 1014.2
20260508062018 55 196 1.0 0.0 0.00 0.00 0.00 94 1014.2
20260508061518 55 196 1.0 0.0 0.00 0.00 0.00 94 1014.2
20260508061021 55 196 1.0 0.0 0.00 0.00 0.00 94 1014.3
20260508060519 55 194 1.0 0.0 0.00 0.00 0.00 94 1014.3
20260508060018 55 174 1.0 0.0 0.00 0.00 0.00 94 1014.3
20260508055517 55 198 1.0 0.0 0.00 0.00 0.00 94 1014.3
20260508055018 55 198 1.0 0.0 0.00 0.00 0.00 94 1014.3
20260508054518 55 198 1.0 0.0 0.00 0.00 0.00 94 1014.3
20260508054017 55 207 1.0 0.0 0.00 0.00 0.00 94 1014.3
20260508053517 55 200 1.0 0.0 0.00 0.00 0.00 94 1014.3
20260508053021 55 198 1.0 0.0 0.00 0.00 0.00 94 1014.3
20260508052519 55 171 1.0 0.0 0.00 0.00 0.00 94 1014.3
20260508052017 55 194 2.0 0.0 0.00 0.00 0.00 94 1014.3
20260508051517 55 186 2.0 0.0 0.00 0.00 0.00 94 1014.3
20260508051017 55 175 1.0 0.0 0.00 0.00 0.00 94 1014.3
20260508050517 56 202 2.0 0.0 0.00 0.00 0.00 94 1014.3
20260508050017 56 202 2.0 0.0 0.00 0.00 0.00 94 1014.3
20260508045516 56 184 2.0 0.0 0.00 0.00 0.00 94 1014.3
20260508045016 56 180 2.0 0.0 0.00 0.00 0.00 94 1014.3
20260508044516 56 184 2.0 0.0 0.00 0.00 0.00 94 1014.3
20260508044016 56 186 2.0 0.0 0.00 0.00 0.00 94 1014.2
20260508043515 56 198 2.0 0.0 0.00 0.00 0.00 94 1014.2
20260508043019 56 180 2.0 0.0 0.00 0.00 0.00 94 1014.2
20260508042519 56 197 2.0 0.0 0.00 0.00 0.00 94 1013.9
20260508042015 56 201 2.0 0.0 0.00 0.00 0.00 93 1013.9
20260508041515 56 190 2.0 0.0 0.00 0.00 0.00 93 1013.9
20260508041015 56 178 2.0 0.0 0.00 0.00 0.00 93 1013.8
20260508040514 56 169 2.0 0.0 0.00 0.00 0.00 93 1013.8
20260508040014 56 175 1.0 0.0 0.00 0.00 0.00 93 1013.8
20260508035514 56 206 1.0 0.0 0.00 0.00 0.00 93 1013.7
20260508035014 56 198 2.0 0.0 0.00 0.00 0.00 92 1013.7
20260508034514 56 179 2.0 0.0 0.00 0.00 0.00 92 1013.7
20260508034014 56 181 2.0 0.0 0.00 0.00 0.00 91 1013.4
20260508033514 56 193 2.0 0.0 0.00 0.00 0.00 91 1013.4
20260508033017 56 173 1.0 0.0 0.00 0.00 0.00 91 1013.4
20260508032518 56 231 1.0 0.0 0.00 0.00 0.00 91 1013.3
20260508032013 56 231 1.0 0.0 0.00 0.00 0.00 91 1013.3
20260508031513 55 248 1.0 0.0 0.00 0.00 0.00 92 1013.3
20260508031013 55 75 1.0 0.0 0.00 0.00 0.00 92 1013.2
20260508030513 56 42 1.0 0.0 0.00 0.00 0.00 92 1013.2
20260508030013 56 128 1.0 0.0 0.00 0.00 0.00 92 1013.2
20260508025515 56 169 0.0 0.0 0.00 0.00 0.00 92 1012.9
20260508025012 56 169 0.0 0.0 0.00 0.00 0.00 92 1012.9
20260508024521 56 169 1.0 0.0 0.00 0.00 0.00 92 1012.9
20260508024014 56 189 2.0 0.0 0.00 0.00 0.00 92 1012.8
20260508023512 57 189 2.0 0.0 0.00 0.00 0.00 92 1012.8
20260508023020 57 201 2.0 0.0 0.00 0.00 0.00 92 1012.8
20260508022512 57 207 3.0 0.0 0.00 0.00 0.00 92 1012.7
20260508022012 57 360 3.0 0.0 0.00 0.00 0.00 91 1012.7
20260508021512 58 192 4.0 0.0 0.00 0.00 0.00 90 1012.7
20260508021011 58 202 4.0 0.0 0.00 0.00 0.00 90 1012.8
20260508020511 59 177 3.0 0.0 0.00 0.00 0.00 89 1012.8
20260508020011 59 156 3.0 0.0 0.00 0.00 0.00 88 1012.8
20260508015511 59 173 3.0 0.0 0.00 0.00 0.00 87 1012.7
20260508015011 60 182 3.0 0.0 0.00 0.00 0.00 86 1012.7
20260508014511 60 173 3.0 0.0 0.00 0.00 0.00 86 1012.7
20260508014009 61 163 3.0 0.0 0.00 0.00 0.00 85 1012.6
20260508013514 61 192 3.0 0.0 0.00 0.00 0.00 84 1012.6
20260508013010 62 360 2.0 0.0 0.00 0.00 0.00 84 1012.6
20260508012510 62 172 2.0 0.0 0.00 0.00 0.00 83 1012.5
20260508012011 62 185 2.0 0.0 0.00 0.00 0.00 83 1012.5
20260508011509 62 197 2.0 0.0 0.00 0.00 0.00 83 1012.5
20260508011009 62 360 3.0 0.0 0.00 0.00 0.00 83 1012.7
20260508010509 62 179 3.0 0.0 0.00 0.00 0.00 82 1012.7
20260508010010 63 177 3.0 0.0 0.00 0.00 0.00 82 1012.7
20260508005508 63 161 3.0 0.0 0.00 0.00 0.00 82 1012.6
20260508005012 63 174 3.0 0.0 0.00 0.00 0.00 82 1012.6
20260508004508 63 198 3.0 0.0 0.00 0.00 0.00 81 1012.6
20260508004012 64 188 3.0 0.0 0.00 0.00 0.00 80 1012.7
20260508003512 64 161 2.0 0.0 0.00 0.00 0.00 80 1012.7
20260508003009 65 157 2.0 0.0 0.00 0.00 0.00 79 1012.7
20260508002511 65 159 2.0 0.0 0.00 0.00 0.00 79 1012.7
20260508002008 65 169 2.0 0.0 0.00 0.00 0.00 79 1012.7
20260508001508 65 187 3.0 0.0 0.00 0.00 0.00 79 1012.7
20260508001007 65 209 3.0 0.0 0.00 0.00 0.00 79 1012.6
20260508000508 66 169 3.0 0.0 0.00 0.00 0.00 78 1012.6
20260508000006 66 219 3.0 0.0 0.00 0.00 0.00 78 1012.6
20260507235510 66 169 2.0 0.0 0.00 0.00 0.00 79 1012.6
20260507235005 65 186 2.0 0.0 0.00 0.00 0.00 79 1012.6
20260507234507 65 188 3.0 0.0 0.00 0.00 0.00 81 1012.6
20260507234006 65 122 3.0 0.0 0.00 0.00 0.00 81 1012.6
20260507233505 65 173 3.0 0.0 0.00 0.00 0.00 81 1012.6
20260507233011 65 164 3.0 0.0 0.00 0.00 0.00 81 1012.7
20260507232506 64 136 4.0 0.0 0.00 0.00 0.00 81 1012.7
20260507232004 64 174 4.0 0.0 0.00 0.00 0.00 81 1012.7
20260507231504 65 176 4.0 0.0 0.00 0.00 0.00 81 1012.7
20260507231004 65 150 4.0 0.0 0.00 0.00 0.00 81 1012.7
20260507230504 65 167 4.0 0.0 0.00 0.00 0.00 81 1012.7
20260507230005 65 155 4.0 0.0 0.00 0.00 0.00 80 1012.7